Time,TemperatureF,DewpointF,PressureIn,WindDirection,WindDirectionDegrees,WindSpeedMPH,WindSpeedGustMPH,Humidity,HourlyPrecipIn,Conditions,Clouds,dailyrainin,SoftwareType,DateUTC
2013-04-27 00:01:00,46.4,18.2,30.19,SW,216,10.5,12.3,32,0.00,,CLR,0.00,VWS V14.01,2013-04-27 06:01:00,
2013-04-27 00:06:00,46.6,18.3,30.19,WSW,239,8.7,13.2,32,0.00,,CLR,0.00,VWS V14.01,2013-04-27 06:06:00,
2013-04-27 00:11:00,46.4,18.9,30.19,SW,231,8.7,13.2,33,0.00,,CLR,0.00,VWS V14.01,2013-04-27 06:11:00,
2013-04-27 00:16:00,46.8,18.5,30.22,WNW,291,0.0,13.2,32,0.00,,CLR,0.00,VWS V14.01,2013-04-27 06:16:00,
2013-04-27 00:21:00,45.5,17.4,30.22,SSW,201,4.0,13.2,32,0.00,,CLR,0.00,VWS V14.01,2013-04-27 06:21:00,
2013-04-27 00:26:00,43.7,16.5,30.22,SSW,213,5.4,13.2,33,0.00,,CLR,0.00,VWS V14.01,2013-04-27 06:26:00,
2013-04-27 00:31:00,44.1,16.8,30.22,SW,214,4.9,13.2,33,0.00,,CLR,0.00,VWS V14.01,2013-04-27 06:31:00,
2013-04-27 00:36:00,44.1,17.5,30.22,WSW,247,5.4,6.3,34,0.00,,CLR,0.00,VWS V14.01,2013-04-27 06:36:00,
2013-04-27 00:41:00,43.3,17.5,30.22,WSW,242,5.4,8.1,35,0.00,,CLR,0.00,VWS V14.01,2013-04-27 06:41:00,
2013-04-27 00:46:00,43.9,18.0,30.19,SW,236,10.1,10.1,35,0.00,,CLR,0.00,VWS V14.01,2013-04-27 06:46:00,
2013-04-27 00:51:00,45.0,18.3,30.19,SW,227,7.6,10.5,34,0.00,,CLR,0.00,VWS V14.01,2013-04-27 06:51:00,
2013-04-27 00:56:00,44.6,18.7,30.19,SW,235,7.6,11.0,35,0.00,,CLR,0.00,VWS V14.01,2013-04-27 06:56:00,
2013-04-27 01:01:00,44.6,18.7,30.19,SW,234,11.0,11.0,35,0.00,,CLR,0.00,VWS V14.01,2013-04-27 07:01:00,
2013-04-27 01:06:00,44.8,18.8,30.19,WSW,249,8.3,12.8,35,0.00,,CLR,0.00,VWS V14.01,2013-04-27 07:06:00,
2013-04-27 01:11:00,45.0,19.0,30.19,WSW,248,12.8,13.6,35,0.00,,CLR,0.00,VWS V14.01,2013-04-27 07:11:00,
2013-04-27 01:16:00,44.4,18.5,30.19,WSW,241,11.0,13.6,35,0.00,,CLR,0.00,VWS V14.01,2013-04-27 07:16:00,
2013-04-27 01:21:00,44.2,19.0,30.19,WSW,240,10.1,13.6,36,0.00,,CLR,0.00,VWS V14.01,2013-04-27 07:21:00,
2013-04-27 01:26:00,44.2,19.0,30.19,SW,223,10.5,15.4,36,0.00,,CLR,0.00,VWS V14.01,2013-04-27 07:26:00,
2013-04-27 01:31:00,44.1,19.5,30.22,SW,231,13.2,15.4,37,0.00,,CLR,0.00,VWS V14.01,2013-04-27 07:31:00,
2013-04-27 01:36:00,43.9,19.3,30.22,SW,234,7.6,13.2,37,0.00,,CLR,0.00,VWS V14.01,2013-04-27 07:36:00,
2013-04-27 01:41:00,43.9,19.9,30.22,WSW,247,8.7,13.2,38,0.00,,CLR,0.00,VWS V14.01,2013-04-27 07:41:00,
2013-04-27 01:46:00,43.3,19.5,30.22,WSW,254,11.0,13.2,38,0.00,,CLR,0.00,VWS V14.01,2013-04-27 07:46:00,
2013-04-27 01:51:00,43.0,19.1,30.22,SW,233,9.2,13.2,38,0.00,,CLR,0.00,VWS V14.01,2013-04-27 07:51:00,
2013-04-27 01:56:00,42.8,19.0,30.22,SW,223,6.3,13.2,38,0.00,,CLR,0.00,VWS V14.01,2013-04-27 07:56:00,
2013-04-27 02:01:00,42.8,19.0,30.22,SW,233,5.4,13.2,38,0.00,,CLR,0.00,VWS V14.01,2013-04-27 08:01:00,
2013-04-27 02:06:00,43.9,19.9,30.22,WSW,237,5.8,11.0,38,0.00,,CLR,0.00,VWS V14.01,2013-04-27 08:06:00,
2013-04-27 02:11:00,44.2,20.3,30.22,WSW,256,8.3,11.0,38,0.00,,CLR,0.00,VWS V14.01,2013-04-27 08:11:00,
2013-04-27 02:16:00,43.9,19.9,30.19,WSW,245,8.1,11.0,38,0.00,,CLR,0.00,VWS V14.01,2013-04-27 08:16:00,
2013-04-27 02:21:00,44.1,20.1,30.19,WSW,240,10.1,11.0,38,0.00,,CLR,0.00,VWS V14.01,2013-04-27 08:21:00,
2013-04-27 02:26:00,44.2,20.3,30.19,WSW,250,13.2,13.2,38,0.00,,CLR,0.00,VWS V14.01,2013-04-27 08:26:00,
2013-04-27 02:31:00,43.9,19.9,30.19,WSW,241,8.1,13.2,38,0.00,,CLR,0.00,VWS V14.01,2013-04-27 08:31:00,
2013-04-27 02:36:00,44.1,20.1,30.19,WSW,247,11.0,13.2,38,0.00,,CLR,0.00,VWS V14.01,2013-04-27 08:36:00,
2013-04-27 02:41:00,44.1,20.1,30.19,West,279,8.3,13.2,38,0.00,,CLR,0.00,VWS V14.01,2013-04-27 08:41:00,
2013-04-27 02:46:00,44.1,20.1,30.19,SW,233,6.3,13.2,38,0.00,,CLR,0.00,VWS V14.01,2013-04-27 08:46:00,
2013-04-27 02:51:00,44.2,20.3,30.19,WSW,239,12.8,13.2,38,0.00,,CLR,0.00,VWS V14.01,2013-04-27 08:51:00,
2013-04-27 02:56:00,45.3,20.6,30.19,WSW,237,10.5,14.5,37,0.00,,CLR,0.00,VWS V14.01,2013-04-27 08:56:00,
2013-04-27 03:01:00,45.0,20.3,30.19,SW,229,6.3,14.5,37,0.00,,CLR,0.00,VWS V14.01,2013-04-27 09:01:00,
2013-04-27 03:06:00,44.2,20.3,30.19,WSW,240,8.3,10.1,38,0.00,,CLR,0.00,VWS V14.01,2013-04-27 09:06:00,
2013-04-27 03:11:00,44.2,20.3,30.19,West,267,8.7,11.9,38,0.00,,CLR,0.00,VWS V14.01,2013-04-27 09:11:00,
2013-04-27 03:16:00,44.4,20.4,30.19,WSW,250,10.1,13.2,38,0.00,,CLR,0.00,VWS V14.01,2013-04-27 09:16:00,
2013-04-27 03:21:00,44.2,20.3,30.19,WSW,246,10.1,13.2,38,0.00,,CLR,0.00,VWS V14.01,2013-04-27 09:21:00,
2013-04-27 03:26:00,44.6,20.6,30.19,WSW,240,8.7,15.0,38,0.00,,CLR,0.00,VWS V14.01,2013-04-27 09:26:00,
2013-04-27 03:31:00,45.5,20.8,30.19,WSW,240,8.3,15.0,37,0.00,,CLR,0.00,VWS V14.01,2013-04-27 09:31:00,
2013-04-27 03:36:00,44.6,20.0,30.19,WSW,250,8.3,9.2,37,0.00,,CLR,0.00,VWS V14.01,2013-04-27 09:36:00,
2013-04-27 03:41:00,44.1,20.1,30.19,WSW,239,12.3,16.3,38,0.00,,CLR,0.00,VWS V14.01,2013-04-27 09:41:00,
2013-04-27 03:46:00,43.2,19.3,30.19,WSW,239,8.7,16.3,38,0.00,,CLR,0.00,VWS V14.01,2013-04-27 09:46:00,
2013-04-27 03:51:00,43.3,19.5,30.19,West,265,8.1,16.3,38,0.00,,CLR,0.00,VWS V14.01,2013-04-27 09:51:00,
2013-04-27 03:56:00,43.3,19.5,30.19,SW,231,11.9,16.3,38,0.00,,CLR,0.00,VWS V14.01,2013-04-27 09:56:00,
2013-04-27 04:01:00,43.9,19.9,30.19,SW,231,10.1,16.3,38,0.00,,CLR,0.00,VWS V14.01,2013-04-27 10:01:00,
2013-04-27 04:05:00,43.7,19.8,30.19,SSW,210,8.3,13.6,38,0.00,,CLR,0.00,VWS V14.01,2013-04-27 10:05:00,
2013-04-27 04:10:00,43.3,19.5,30.19,SSW,195,8.3,13.6,38,0.00,,CLR,0.00,VWS V14.01,2013-04-27 10:10:00,
2013-04-27 04:15:00,42.3,19.1,30.19,South,185,5.8,13.6,39,0.00,,CLR,0.00,VWS V14.01,2013-04-27 10:15:00,
2013-04-27 04:20:00,41.7,18.6,30.19,SSW,203,8.7,13.6,39,0.00,,CLR,0.00,VWS V14.01,2013-04-27 10:20:00,
2013-04-27 04:25:00,42.6,19.4,30.19,SW,216,7.6,13.6,39,0.00,,CLR,0.00,VWS V14.01,2013-04-27 10:25:00,
2013-04-27 04:30:00,43.9,19.9,30.19,SW,216,7.6,13.6,38,0.00,,CLR,0.00,VWS V14.01,2013-04-27 10:30:00,
2013-04-27 04:35:00,45.1,21.1,30.19,SSW,209,6.3,8.1,38,0.00,,CLR,0.00,VWS V14.01,2013-04-27 10:35:00,
2013-04-27 04:40:00,45.3,20.6,30.19,SW,217,8.1,11.0,37,0.00,,CLR,0.00,VWS V14.01,2013-04-27 10:40:00,
2013-04-27 04:45:00,47.1,21.6,30.19,SW,223,5.8,11.0,36,0.00,,CLR,0.00,VWS V14.01,2013-04-27 10:45:00,
2013-04-27 04:50:00,46.6,21.1,30.19,SSW,212,9.2,11.0,36,0.00,,CLR,0.00,VWS V14.01,2013-04-27 10:50:00,
2013-04-27 04:55:00,45.7,20.9,30.19,SW,226,8.1,11.0,37,0.00,,CLR,0.00,VWS V14.01,2013-04-27 10:55:00,
2013-04-27 05:00:00,44.2,20.3,30.19,WSW,250,8.1,11.0,38,0.00,,CLR,0.00,VWS V14.01,2013-04-27 11:00:00,
2013-04-27 05:05:00,42.4,19.2,30.19,WSW,240,7.6,7.6,39,0.00,,CLR,0.00,VWS V14.01,2013-04-27 11:05:00,
2013-04-27 05:10:00,41.5,18.4,30.19,SSW,211,5.8,8.3,39,0.00,,CLR,0.00,VWS V14.01,2013-04-27 11:10:00,
2013-04-27 05:15:00,41.2,18.1,30.19,SW,227,3.6,8.3,39,0.00,,CLR,0.00,VWS V14.01,2013-04-27 11:15:00,
2013-04-27 05:20:00,41.4,18.3,30.19,West,276,5.8,8.3,39,0.00,,CLR,0.00,VWS V14.01,2013-04-27 11:20:00,
2013-04-27 05:25:00,41.7,18.6,30.19,SW,229,4.9,8.3,39,0.00,,CLR,0.00,VWS V14.01,2013-04-27 11:25:00,
2013-04-27 05:30:00,43.5,19.6,30.19,WSW,243,4.9,8.3,38,0.00,,CLR,0.00,VWS V14.01,2013-04-27 11:30:00,
2013-04-27 05:35:00,44.6,20.0,30.19,West,259,3.6,8.7,37,0.00,,CLR,0.00,VWS V14.01,2013-04-27 11:35:00,
2013-04-27 05:40:00,44.1,20.1,30.19,WSW,247,6.3,8.7,38,0.00,,CLR,0.00,VWS V14.01,2013-04-27 11:40:00,
2013-04-27 05:45:00,45.5,20.1,30.19,West,277,3.6,8.7,36,0.00,,CLR,0.00,VWS V14.01,2013-04-27 11:45:00,
2013-04-27 05:50:00,43.9,19.9,30.19,WSW,246,4.9,8.7,38,0.00,,CLR,0.00,VWS V14.01,2013-04-27 11:50:00,
2013-04-27 05:55:00,45.3,20.0,30.19,WSW,247,5.8,8.7,36,0.00,,CLR,0.00,VWS V14.01,2013-04-27 11:55:00,
2013-04-27 06:00:00,43.3,19.5,30.19,WSW,246,6.3,8.7,38,0.00,,CLR,0.00,VWS V14.01,2013-04-27 12:00:00,
2013-04-27 06:05:00,41.0,18.0,30.19,WSW,251,4.9,7.6,39,0.00,,CLR,0.00,VWS V14.01,2013-04-27 12:05:00,
2013-04-27 06:10:00,40.3,17.9,30.19,WSW,250,4.9,7.6,40,0.00,,CLR,0.00,VWS V14.01,2013-04-27 12:10:00,
2013-04-27 06:15:00,39.7,18.0,30.19,SW,232,5.8,7.6,41,0.00,,CLR,0.00,VWS V14.01,2013-04-27 12:15:00,
2013-04-27 06:20:00,40.3,19.6,30.19,WSW,238,4.9,7.6,43,0.00,,CLR,0.00,VWS V14.01,2013-04-27 12:20:00,
2013-04-27 06:25:00,41.5,19.6,30.19,SSW,200,3.6,7.6,41,0.00,,CLR,0.00,VWS V14.01,2013-04-27 12:25:00,
2013-04-27 06:30:00,43.3,20.1,30.19,SW,222,6.3,7.6,39,0.00,,CLR,0.00,VWS V14.01,2013-04-27 12:30:00,
2013-04-27 06:35:00,44.4,21.0,30.19,WSW,255,6.3,7.6,39,0.00,,CLR,0.00,VWS V14.01,2013-04-27 12:35:00,
2013-04-27 06:40:00,45.5,22.0,30.19,West,261,3.6,10.1,39,0.00,,CLR,0.00,VWS V14.01,2013-04-27 12:40:00,
2013-04-27 06:45:00,46.4,22.2,30.19,West,264,4.9,10.1,38,0.00,,CLR,0.00,VWS V14.01,2013-04-27 12:45:00,
2013-04-27 06:50:00,47.5,23.2,30.19,SW,234,6.3,10.1,38,0.00,,CLR,0.00,VWS V14.01,2013-04-27 12:50:00,
2013-04-27 06:55:00,47.1,22.8,30.19,WSW,248,5.8,10.1,38,0.00,,CLR,0.00,VWS V14.01,2013-04-27 12:55:00,
2013-04-27 07:00:00,46.0,21.9,30.19,WSW,257,8.1,10.5,38,0.00,,CLR,0.00,VWS V14.01,2013-04-27 13:00:00,
2013-04-27 07:05:00,45.3,21.2,30.19,WSW,258,5.4,10.1,38,0.00,,CLR,0.00,VWS V14.01,2013-04-27 13:05:00,
2013-04-27 07:10:00,45.1,21.1,30.19,SW,236,5.4,10.1,38,0.00,,CLR,0.00,VWS V14.01,2013-04-27 13:10:00,
2013-04-27 07:15:00,45.3,21.2,30.19,SW,217,8.1,10.1,38,0.00,,CLR,0.00,VWS V14.01,2013-04-27 13:15:00,
2013-04-27 07:20:00,45.5,21.4,30.19,SW,231,8.1,10.1,38,0.00,,CLR,0.00,VWS V14.01,2013-04-27 13:20:00,
2013-04-27 07:25:00,45.5,21.4,30.19,SW,230,5.8,10.1,38,0.00,,CLR,0.00,VWS V14.01,2013-04-27 13:25:00,
2013-04-27 07:30:00,45.7,21.5,30.19,SW,235,6.3,10.1,38,0.00,,CLR,0.00,VWS V14.01,2013-04-27 13:30:00,
2013-04-27 07:35:00,45.7,21.5,30.19,West,262,5.8,8.3,38,0.00,,CLR,0.00,VWS V14.01,2013-04-27 13:35:00,
2013-04-27 07:40:00,45.9,21.7,30.19,SW,221,6.3,8.3,38,0.00,,CLR,0.00,VWS V14.01,2013-04-27 13:40:00,
2013-04-27 07:48:00,46.2,22.0,30.19,SW,232,8.1,11.9,38,0.00,,CLR,0.00,VWS V14.01,2013-04-27 13:48:00,
2013-04-27 07:53:00,46.4,22.2,30.19,SW,222,5.8,11.9,38,0.00,,CLR,0.00,VWS V14.01,2013-04-27 13:53:00,
2013-04-27 07:58:00,46.6,21.7,30.19,SW,223,6.3,11.9,37,0.00,,CLR,0.00,VWS V14.01,2013-04-27 13:58:00,
2013-04-27 08:03:00,46.4,21.6,30.19,SW,234,10.1,10.1,37,0.00,,CLR,0.00,VWS V14.01,2013-04-27 14:03:00,
2013-04-27 08:08:00,46.4,21.6,30.19,SW,234,7.6,10.5,37,0.00,,CLR,0.00,VWS V14.01,2013-04-27 14:08:00,
2013-04-27 08:13:00,46.4,21.6,30.19,WSW,247,5.8,10.5,37,0.00,,CLR,0.00,VWS V14.01,2013-04-27 14:13:00,
2013-04-27 08:18:00,46.8,21.9,30.19,SW,226,6.3,10.5,37,0.00,,CLR,0.00,VWS V14.01,2013-04-27 14:18:00,
2013-04-27 08:23:00,47.1,22.2,30.19,SW,231,8.3,10.5,37,0.00,,CLR,0.00,VWS V14.01,2013-04-27 14:23:00,
2013-04-27 08:28:00,47.8,22.9,30.19,WSW,242,10.5,10.5,37,0.00,,CLR,0.00,VWS V14.01,2013-04-27 14:28:00,
2013-04-27 08:33:00,48.4,22.7,30.19,SW,230,8.3,8.3,36,0.00,,CLR,0.00,VWS V14.01,2013-04-27 14:33:00,
2013-04-27 08:38:00,48.2,22.5,30.19,SW,227,7.2,8.3,36,0.00,,CLR,0.00,VWS V14.01,2013-04-27 14:38:00,
2013-04-27 08:43:00,48.4,22.7,30.19,SW,214,5.8,8.7,36,0.00,,CLR,0.00,VWS V14.01,2013-04-27 14:43:00,
2013-04-27 08:48:00,48.7,23.6,30.19,WSW,247,6.3,8.7,37,0.00,,CLR,0.00,VWS V14.01,2013-04-27 14:48:00,
2013-04-27 08:53:00,49.3,23.5,30.19,SW,226,5.4,8.7,36,0.00,,CLR,0.00,VWS V14.01,2013-04-27 14:53:00,
2013-04-27 08:58:00,49.8,23.3,30.16,SW,231,5.8,8.7,35,0.00,,CLR,0.00,VWS V14.01,2013-04-27 14:58:00,
2013-04-27 09:03:00,50.5,23.9,30.16,WSW,243,6.3,8.3,35,0.00,,CLR,0.00,VWS V14.01,2013-04-27 15:03:00,
2013-04-27 09:08:00,50.9,24.2,30.16,SW,234,5.4,8.3,35,0.00,,CLR,0.00,VWS V14.01,2013-04-27 15:08:00,
2013-04-27 09:13:00,52.3,24.8,30.16,WSW,240,7.6,10.1,34,0.00,,CLR,0.00,VWS V14.01,2013-04-27 15:13:00,
2013-04-27 09:18:00,55.9,25.8,30.16,WSW,250,6.3,10.1,31,0.00,,CLR,0.00,VWS V14.01,2013-04-27 15:18:00,
2013-04-27 09:23:00,58.5,26.3,30.16,SW,223,7.2,10.1,29,0.00,,CLR,0.00,VWS V14.01,2013-04-27 15:23:00,
2013-04-27 09:28:00,60.1,26.0,30.16,SW,227,8.1,10.1,27,0.00,,CLR,0.00,VWS V14.01,2013-04-27 15:28:00,
2013-04-27 09:33:00,61.5,26.3,30.16,WSW,241,6.3,6.7,26,0.00,,CLR,0.00,VWS V14.01,2013-04-27 15:33:00,
2013-04-27 09:38:00,63.9,26.4,30.16,SW,219,4.0,6.7,24,0.00,,CLR,0.00,VWS V14.01,2013-04-27 15:38:00,
2013-04-27 09:43:00,65.5,26.7,30.16,SSW,207,3.1,6.7,23,0.00,,CLR,0.00,VWS V14.01,2013-04-27 15:43:00,
2013-04-27 09:48:00,67.8,28.7,30.16,SSE,154,2.7,6.7,23,0.00,,CLR,0.00,VWS V14.01,2013-04-27 15:48:00,
2013-04-27 09:53:00,66.7,24.4,30.16,ESE,117,3.1,6.7,20,0.00,,CLR,0.00,VWS V14.01,2013-04-27 15:53:00,
2013-04-27 09:58:00,66.0,21.3,30.16,East,84,3.6,6.7,18,0.00,,CLR,0.00,VWS V14.01,2013-04-27 15:58:00,
2013-04-27 10:03:00,65.1,20.6,30.16,North,3,6.3,6.3,18,0.00,,CLR,0.00,VWS V14.01,2013-04-27 16:03:00,
2013-04-27 10:08:00,63.5,16.5,30.16,North,357,4.9,6.3,16,0.00,,CLR,0.00,VWS V14.01,2013-04-27 16:08:00,
2013-04-27 10:13:00,62.2,19.5,30.16,North,353,5.8,8.3,19,0.00,,CLR,0.00,VWS V14.01,2013-04-27 16:13:00,
2013-04-27 10:18:00,61.9,19.2,30.16,NNE,19,4.9,8.7,19,0.00,,CLR,0.00,VWS V14.01,2013-04-27 16:18:00,
2013-04-27 10:23:00,63.5,22.9,30.16,North,357,4.0,8.7,21,0.00,,CLR,0.00,VWS V14.01,2013-04-27 16:23:00,
2013-04-27 10:28:00,63.3,19.1,30.16,ENE,57,6.3,8.7,18,0.00,,CLR,0.00,VWS V14.01,2013-04-27 16:28:00,
2013-04-27 10:33:00,61.5,25.4,30.16,ESE,120,5.8,11.9,25,0.00,,CLR,0.00,VWS V14.01,2013-04-27 16:33:00,
2013-04-27 10:38:00,60.6,24.6,30.16,ESE,109,6.3,11.9,25,0.00,,CLR,0.00,VWS V14.01,2013-04-27 16:38:00,
2013-04-27 10:43:00,60.6,24.6,30.16,East,98,6.7,11.9,25,0.00,,CLR,0.00,VWS V14.01,2013-04-27 16:43:00,
2013-04-27 10:48:00,61.0,24.0,30.16,NNW,330,2.7,11.9,24,0.00,,CLR,0.00,VWS V14.01,2013-04-27 16:48:00,
2013-04-27 10:53:00,61.9,25.7,30.16,ESE,119,4.0,11.9,25,0.00,,CLR,0.00,VWS V14.01,2013-04-27 16:53:00,
2013-04-27 10:58:00,62.2,26.0,30.16,SW,218,3.6,11.9,25,0.00,,CLR,0.00,VWS V14.01,2013-04-27 16:58:00,
2013-04-27 11:03:00,62.2,26.0,30.16,ESE,115,6.3,6.3,25,0.00,,CLR,0.00,VWS V14.01,2013-04-27 17:03:00,
2013-04-27 11:08:00,59.4,23.6,30.16,ESE,103,8.7,8.7,25,0.00,,CLR,0.00,VWS V14.01,2013-04-27 17:08:00,
2013-04-27 11:13:00,58.5,22.8,30.16,ESE,102,10.1,13.2,25,0.00,,CLR,0.00,VWS V14.01,2013-04-27 17:13:00,
2013-04-27 11:18:00,58.5,22.8,30.16,SE,132,8.3,13.2,25,0.00,,CLR,0.00,VWS V14.01,2013-04-27 17:18:00,
2013-04-27 11:23:00,59.9,24.0,30.16,ESE,121,8.1,13.2,25,0.00,,CLR,0.00,VWS V14.01,2013-04-27 17:23:00,
2013-04-27 11:28:00,59.7,23.9,30.16,ESE,107,4.9,13.2,25,0.00,,CLR,0.00,VWS V14.01,2013-04-27 17:28:00,
2013-04-27 11:33:00,60.3,23.4,30.16,ESE,118,3.6,5.8,24,0.00,,CLR,0.00,VWS V14.01,2013-04-27 17:33:00,
2013-04-27 11:38:00,60.8,23.8,30.16,SE,146,7.6,8.1,24,0.00,,CLR,0.00,VWS V14.01,2013-04-27 17:38:00,
2013-04-27 11:43:00,62.2,25.0,30.16,ENE,78,3.1,8.1,24,0.00,,CLR,0.00,VWS V14.01,2013-04-27 17:43:00,
2013-04-27 11:48:00,62.2,25.0,30.16,ENE,73,5.4,8.1,24,0.00,,CLR,0.00,VWS V14.01,2013-04-27 17:48:00,
2013-04-27 11:53:00,62.4,25.2,30.16,ENE,73,3.6,8.1,24,0.00,,CLR,0.00,VWS V14.01,2013-04-27 17:53:00,
2013-04-27 11:58:00,61.5,24.4,30.13,ESE,121,9.6,10.1,24,0.00,,CLR,0.00,VWS V14.01,2013-04-27 17:58:00,
2013-04-27 12:03:00,62.4,25.2,30.13,East,95,7.6,10.1,24,0.00,,CLR,0.00,VWS V14.01,2013-04-27 18:03:00,
2013-04-27 12:08:00,62.1,24.9,30.13,SE,130,8.1,11.0,24,0.00,,CLR,0.00,VWS V14.01,2013-04-27 18:08:00,
2013-04-27 12:13:00,63.1,22.6,30.13,SSE,167,5.8,15.0,21,0.00,,CLR,0.00,VWS V14.01,2013-04-27 18:13:00,
2013-04-27 12:18:00,64.2,25.7,30.13,SE,137,2.7,15.0,23,0.00,,CLR,0.00,VWS V14.01,2013-04-27 18:18:00,
2013-04-27 12:23:00,64.4,22.5,30.13,ESE,107,3.1,15.0,20,0.00,,CLR,0.00,VWS V14.01,2013-04-27 18:23:00,
2013-04-27 12:28:00,64.8,26.1,30.13,ESE,112,3.1,15.0,23,0.00,,CLR,0.00,VWS V14.01,2013-04-27 18:28:00,
2013-04-27 12:33:00,64.4,25.8,30.13,NE,42,5.8,7.6,23,0.00,,CLR,0.00,VWS V14.01,2013-04-27 18:33:00,
2013-04-27 12:38:00,64.2,25.7,30.13,ESE,121,5.8,8.1,23,0.00,,CLR,0.00,VWS V14.01,2013-04-27 18:38:00,
2013-04-27 12:43:00,64.4,22.5,30.13,SSE,168,5.8,8.7,20,0.00,,CLR,0.00,VWS V14.01,2013-04-27 18:43:00,
2013-04-27 12:48:00,64.0,23.3,30.13,SE,144,2.7,8.7,21,0.00,,CLR,0.00,VWS V14.01,2013-04-27 18:48:00,
2013-04-27 12:53:00,65.8,23.7,30.13,ESE,112,0.0,8.7,20,0.00,,CLR,0.00,VWS V14.01,2013-04-27 18:53:00,
2013-04-27 12:58:00,68.0,25.5,30.13,SE,146,0.0,8.7,20,0.00,,CLR,0.00,VWS V14.01,2013-04-27 18:58:00,
2013-04-27 13:03:00,68.4,21.9,30.13,ESE,105,2.2,5.8,17,0.00,,CLR,0.00,VWS V14.01,2013-04-27 19:03:00,
2013-04-27 13:08:00,68.5,22.0,30.13,NNE,23,2.7,5.8,17,0.00,,CLR,0.00,VWS V14.01,2013-04-27 19:08:00,
2013-04-27 13:13:00,69.1,22.5,30.13,WNW,294,6.3,6.3,17,0.00,,CLR,0.00,VWS V14.01,2013-04-27 19:13:00,
2013-04-27 13:18:00,69.1,22.5,30.13,SE,143,0.0,6.3,17,0.00,,CLR,0.00,VWS V14.01,2013-04-27 19:18:00,
2013-04-27 13:23:00,66.9,20.7,30.13,North,357,4.0,6.3,17,0.00,,CLR,0.00,VWS V14.01,2013-04-27 19:23:00,
2013-04-27 13:28:00,67.3,27.2,30.10,WNW,291,5.4,6.3,22,0.00,,CLR,0.00,VWS V14.01,2013-04-27 19:28:00,
2013-04-27 13:33:00,65.3,20.7,30.10,WSW,245,7.6,11.0,18,0.00,,CLR,0.00,VWS V14.01,2013-04-27 19:33:00,
2013-04-27 13:38:00,65.3,20.7,30.10,WSW,238,11.0,12.8,18,0.00,,CLR,0.00,VWS V14.01,2013-04-27 19:38:00,
2013-04-27 13:43:00,64.4,20.0,30.10,WSW,247,10.5,15.4,18,0.00,,CLR,0.00,VWS V14.01,2013-04-27 19:43:00,
2013-04-27 13:48:00,64.0,19.7,30.10,SW,230,8.3,15.4,18,0.00,,CLR,0.00,VWS V14.01,2013-04-27 19:48:00,
2013-04-27 13:53:00,64.8,20.3,30.10,WSW,246,10.5,15.4,18,0.00,,CLR,0.00,VWS V14.01,2013-04-27 19:53:00,
2013-04-27 13:58:00,64.8,20.3,30.10,SW,219,10.5,15.4,18,0.00,,CLR,0.00,VWS V14.01,2013-04-27 19:58:00,
2013-04-27 14:03:00,64.4,20.0,30.10,SW,229,6.3,8.3,18,0.00,,CLR,0.00,VWS V14.01,2013-04-27 20:03:00,
2013-04-27 14:08:00,64.8,20.3,30.10,SW,228,8.3,10.5,18,0.00,,CLR,0.00,VWS V14.01,2013-04-27 20:08:00,
2013-04-27 14:13:00,64.4,20.0,30.10,SW,229,8.1,10.5,18,0.00,,CLR,0.00,VWS V14.01,2013-04-27 20:13:00,
2013-04-27 14:18:00,64.4,20.0,30.10,SW,231,7.6,12.3,18,0.00,,CLR,0.00,VWS V14.01,2013-04-27 20:18:00,
2013-04-27 14:23:00,64.2,19.9,30.10,SW,226,8.3,12.3,18,0.00,,CLR,0.00,VWS V14.01,2013-04-27 20:23:00,
2013-04-27 14:28:00,63.9,19.6,30.10,SW,227,8.7,15.0,18,0.00,,CLR,0.00,VWS V14.01,2013-04-27 20:28:00,
2013-04-27 14:33:00,64.4,20.0,30.10,WSW,250,11.4,15.0,18,0.00,,CLR,0.00,VWS V14.01,2013-04-27 20:33:00,
2013-04-27 14:38:00,67.1,20.9,30.10,SW,236,8.7,15.0,17,0.00,,CLR,0.00,VWS V14.01,2013-04-27 20:38:00,
2013-04-27 14:43:00,68.4,21.9,30.10,SW,221,11.0,15.0,17,0.00,,CLR,0.00,VWS V14.01,2013-04-27 20:43:00,
2013-04-27 14:48:00,67.1,17.9,30.10,WSW,257,12.8,15.0,15,0.00,,CLR,0.00,VWS V14.01,2013-04-27 20:48:00,
2013-04-27 14:53:00,66.6,17.5,30.10,South,189,3.6,15.0,15,0.00,,CLR,0.00,VWS V14.01,2013-04-27 20:53:00,
2013-04-27 14:58:00,68.5,19.1,30.07,SSW,208,8.3,15.0,15,0.00,,CLR,0.00,VWS V14.01,2013-04-27 20:58:00,
2013-04-27 15:03:00,70.0,18.6,30.07,West,262,11.0,12.3,14,0.00,,CLR,0.00,VWS V14.01,2013-04-27 21:03:00,
2013-04-27 15:08:00,70.3,18.9,30.07,SSW,204,7.6,15.4,14,0.00,,CLR,0.00,VWS V14.01,2013-04-27 21:08:00,
2013-04-27 15:13:00,69.6,20.0,30.07,West,275,8.1,15.4,15,0.00,,CLR,0.00,VWS V14.01,2013-04-27 21:13:00,
2013-04-27 15:18:00,69.6,20.0,30.07,SW,219,3.6,16.8,15,0.00,,CLR,0.00,VWS V14.01,2013-04-27 21:18:00,
2013-04-27 15:23:00,69.4,19.8,30.07,WSW,257,10.1,19.2,15,0.00,,CLR,0.00,VWS V14.01,2013-04-27 21:23:00,
2013-04-27 15:28:00,70.9,19.4,30.07,SW,214,10.5,19.2,14,0.00,,CLR,0.00,VWS V14.01,2013-04-27 21:28:00,
2013-04-27 15:33:00,71.6,19.9,30.07,WNW,290,8.3,12.8,14,0.00,,CLR,0.00,VWS V14.01,2013-04-27 21:33:00,
2013-04-27 15:38:00,66.9,17.8,30.07,WSW,253,14.1,14.5,15,0.00,,CLR,0.00,VWS V14.01,2013-04-27 21:38:00,
2013-04-27 15:43:00,65.5,16.6,30.07,WSW,242,13.2,14.5,15,0.00,,CLR,0.00,VWS V14.01,2013-04-27 21:43:00,
2013-04-27 15:48:00,64.8,16.1,30.07,SW,224,15.4,23.3,15,0.00,,CLR,0.00,VWS V14.01,2013-04-27 21:48:00,
2013-04-27 15:53:00,64.8,20.3,30.07,SW,224,15.0,23.3,18,0.00,,CLR,0.00,VWS V14.01,2013-04-27 21:53:00,
2013-04-27 15:58:00,63.9,16.8,30.07,WSW,252,15.9,23.3,16,0.00,,CLR,0.00,VWS V14.01,2013-04-27 21:58:00,
2013-04-27 16:03:00,63.9,19.6,30.07,WSW,237,11.0,13.2,18,0.00,,CLR,0.00,VWS V14.01,2013-04-27 22:03:00,
2013-04-27 16:08:00,63.7,19.4,30.07,SW,231,12.8,13.2,18,0.00,,CLR,0.00,VWS V14.01,2013-04-27 22:08:00,
2013-04-27 16:13:00,63.5,19.3,30.07,SW,230,8.7,13.2,18,0.00,,CLR,0.00,VWS V14.01,2013-04-27 22:13:00,
2013-04-27 16:18:00,63.7,19.4,30.07,SW,227,10.1,15.0,18,0.00,,CLR,0.00,VWS V14.01,2013-04-27 22:18:00,
2013-04-27 16:23:00,64.0,19.7,30.07,WSW,245,15.4,19.2,18,0.00,,CLR,0.00,VWS V14.01,2013-04-27 22:23:00,
2013-04-27 16:28:00,64.4,20.0,30.04,WSW,246,14.1,21.9,18,0.00,,CLR,0.00,VWS V14.01,2013-04-27 22:28:00,
2013-04-27 16:33:00,65.3,20.7,30.04,WSW,247,13.2,17.0,18,0.00,,CLR,0.00,VWS V14.01,2013-04-27 22:33:00,
2013-04-27 16:38:00,64.6,20.1,30.04,WSW,247,13.6,17.0,18,0.00,,CLR,0.00,VWS V14.01,2013-04-27 22:38:00,
2013-04-27 16:43:00,63.9,19.6,30.04,SW,230,12.3,17.0,18,0.00,,CLR,0.00,VWS V14.01,2013-04-27 22:43:00,
2013-04-27 16:48:00,64.0,23.3,30.04,SSW,213,6.3,17.0,21,0.00,,CLR,0.00,VWS V14.01,2013-04-27 22:48:00,
2013-04-27 16:53:00,63.9,19.6,30.04,West,262,8.7,17.0,18,0.00,,CLR,0.00,VWS V14.01,2013-04-27 22:53:00,
2013-04-27 16:58:00,64.0,19.7,30.04,West,275,5.8,17.0,18,0.00,,CLR,0.00,VWS V14.01,2013-04-27 22:58:00,
2013-04-27 17:03:00,64.6,20.1,30.04,SW,229,8.3,8.3,18,0.00,,CLR,0.00,VWS V14.01,2013-04-27 23:03:00,
2013-04-27 17:08:00,65.8,21.2,30.04,West,266,5.8,13.2,18,0.00,,CLR,0.00,VWS V14.01,2013-04-27 23:08:00,
2013-04-27 17:13:00,66.4,20.3,30.04,WSW,250,4.9,13.2,17,0.00,,CLR,0.00,VWS V14.01,2013-04-27 23:13:00,
2013-04-27 17:18:00,66.0,21.3,30.04,WSW,248,11.0,13.2,18,0.00,,CLR,0.00,VWS V14.01,2013-04-27 23:18:00,
2013-04-27 17:23:00,66.0,21.3,30.04,WSW,244,8.7,13.2,18,0.00,,CLR,0.00,VWS V14.01,2013-04-27 23:23:00,
2013-04-27 17:28:00,66.7,20.6,30.04,WSW,254,11.0,15.4,17,0.00,,CLR,0.00,VWS V14.01,2013-04-27 23:28:00,
2013-04-27 17:33:00,66.6,20.4,30.04,SW,227,9.6,11.0,17,0.00,,CLR,0.00,VWS V14.01,2013-04-27 23:33:00,
2013-04-27 17:38:00,67.3,21.0,30.04,WSW,244,7.6,18.3,17,0.00,,CLR,0.00,VWS V14.01,2013-04-27 23:38:00,
2013-04-27 17:43:00,67.5,18.2,30.01,WSW,245,3.6,22.4,15,0.00,,CLR,0.00,VWS V14.01,2013-04-27 23:43:00,
2013-04-27 17:48:00,69.1,22.5,30.01,West,266,12.3,22.4,17,0.00,,CLR,0.00,VWS V14.01,2013-04-27 23:48:00,
2013-04-27 17:53:00,68.4,21.9,30.01,West,268,13.2,22.4,17,0.00,,CLR,0.00,VWS V14.01,2013-04-27 23:53:00,
2013-04-27 17:58:00,65.8,21.2,30.01,NW,308,14.5,22.4,18,0.00,,CLR,0.00,VWS V14.01,2013-04-27 23:58:00,
2013-04-27 18:03:00,65.8,21.2,30.01,West,273,11.0,15.4,18,0.00,,CLR,0.00,VWS V14.01,2013-04-28 00:03:00,
2013-04-27 18:08:00,65.1,20.6,30.01,SW,234,15.0,15.4,18,0.00,,CLR,0.00,VWS V14.01,2013-04-28 00:08:00,
2013-04-27 18:13:00,63.7,19.4,30.01,SW,224,12.8,17.4,18,0.00,,CLR,0.00,VWS V14.01,2013-04-28 00:13:00,
2013-04-27 18:17:00,63.7,19.4,30.01,SW,227,8.7,17.4,18,0.00,,CLR,0.00,VWS V14.01,2013-04-28 00:17:00,
2013-04-27 18:22:00,63.5,19.3,30.01,WSW,237,10.5,17.4,18,0.00,,CLR,0.00,VWS V14.01,2013-04-28 00:22:00,
2013-04-27 18:27:00,65.5,20.9,30.01,West,277,10.1,17.4,18,0.00,,CLR,0.00,VWS V14.01,2013-04-28 00:27:00,
2013-04-27 18:32:00,67.6,21.3,30.01,SW,225,15.0,15.4,17,0.00,,CLR,0.00,VWS V14.01,2013-04-28 00:32:00,
2013-04-27 18:37:00,68.2,21.7,30.01,WSW,241,8.7,15.4,17,0.00,,CLR,0.00,VWS V14.01,2013-04-28 00:37:00,
2013-04-27 18:42:00,67.8,21.5,30.01,WSW,237,8.7,15.4,17,0.00,,CLR,0.00,VWS V14.01,2013-04-28 00:42:00,
2013-04-27 18:47:00,66.6,17.5,30.01,West,273,7.6,16.3,15,0.00,,CLR,0.00,VWS V14.01,2013-04-28 00:47:00,
2013-04-27 18:52:00,67.3,21.0,30.01,West,262,6.3,16.3,17,0.00,,CLR,0.00,VWS V14.01,2013-04-28 00:52:00,
2013-04-27 18:57:00,66.4,20.3,30.01,SW,214,11.9,16.3,17,0.00,,CLR,0.00,VWS V14.01,2013-04-28 00:57:00,
2013-04-27 19:02:00,65.3,16.5,30.01,WNW,299,5.4,15.0,15,0.00,,CLR,0.00,VWS V14.01,2013-04-28 01:02:00,
2013-04-27 19:07:00,65.3,16.5,30.01,SW,228,9.6,15.0,15,0.00,,CLR,0.00,VWS V14.01,2013-04-28 01:07:00,
2013-04-27 19:12:00,64.9,20.4,30.01,SW,224,15.4,15.4,18,0.00,,CLR,0.00,VWS V14.01,2013-04-28 01:12:00,
2013-04-27 19:17:00,65.7,16.8,30.01,WSW,241,11.0,15.4,15,0.00,,CLR,0.00,VWS V14.01,2013-04-28 01:17:00,
2013-04-27 19:22:00,64.0,17.0,30.01,SSW,203,15.0,15.4,16,0.00,,CLR,0.00,VWS V14.01,2013-04-28 01:22:00,
2013-04-27 19:27:00,62.1,15.4,30.01,SW,220,11.9,15.4,16,0.00,,CLR,0.00,VWS V14.01,2013-04-28 01:27:00,
2013-04-27 19:32:00,61.5,14.9,30.01,WSW,243,14.5,19.7,16,0.00,,CLR,0.00,VWS V14.01,2013-04-28 01:32:00,
2013-04-27 19:37:00,61.3,14.8,30.01,SW,230,10.5,19.7,16,0.00,,CLR,0.00,VWS V14.01,2013-04-28 01:37:00,
2013-04-27 19:42:00,61.5,14.9,30.01,SW,227,8.3,19.7,16,0.00,,CLR,0.00,VWS V14.01,2013-04-28 01:42:00,
2013-04-27 19:47:00,60.8,18.3,30.01,SSW,207,8.3,19.7,19,0.00,,CLR,0.00,VWS V14.01,2013-04-28 01:47:00,
2013-04-27 19:52:00,60.4,18.0,30.01,WSW,237,3.6,19.7,19,0.00,,CLR,0.00,VWS V14.01,2013-04-28 01:52:00,
2013-04-27 19:57:00,59.5,17.3,30.01,SW,224,5.4,19.7,19,0.00,,CLR,0.00,VWS V14.01,2013-04-28 01:57:00,
2013-04-27 20:02:00,58.6,16.5,30.01,SSE,167,3.1,3.6,19,0.00,,CLR,0.00,VWS V14.01,2013-04-28 02:02:00,
2013-04-27 20:07:00,57.7,15.8,30.01,SSW,212,0.0,4.9,19,0.00,,CLR,0.00,VWS V14.01,2013-04-28 02:07:00,
2013-04-27 20:12:00,59.5,14.7,30.01,West,264,3.6,11.0,17,0.00,,CLR,0.00,VWS V14.01,2013-04-28 02:12:00,
2013-04-27 20:17:00,57.2,21.7,30.01,WSW,242,5.4,11.0,25,0.00,,CLR,0.00,VWS V14.01,2013-04-28 02:17:00,
2013-04-27 20:22:00,54.0,19.9,30.01,West,270,6.3,11.0,26,0.00,,CLR,0.00,VWS V14.01,2013-04-28 02:22:00,
2013-04-27 20:27:00,54.0,19.9,30.01,WNW,287,4.0,11.0,26,0.00,,CLR,0.00,VWS V14.01,2013-04-28 02:27:00,
2013-04-27 20:32:00,52.5,19.5,30.01,WNW,303,3.6,4.0,27,0.00,,CLR,0.00,VWS V14.01,2013-04-28 02:32:00,
2013-04-27 20:37:00,52.3,19.4,30.01,WSW,254,3.6,7.6,27,0.00,,CLR,0.00,VWS V14.01,2013-04-28 02:37:00,
2013-04-27 20:42:00,51.6,18.8,30.01,WSW,247,4.0,7.6,27,0.00,,CLR,0.00,VWS V14.01,2013-04-28 02:42:00,
2013-04-27 20:47:00,50.9,19.8,30.01,SSW,210,4.9,7.6,29,0.00,,CLR,0.00,VWS V14.01,2013-04-28 02:47:00,
2013-04-27 20:52:00,52.9,19.8,30.01,South,169,2.2,7.6,27,0.00,,CLR,0.00,VWS V14.01,2013-04-28 02:52:00,
2013-04-27 20:57:00,53.2,21.0,30.01,West,269,8.7,9.2,28,0.00,,CLR,0.00,VWS V14.01,2013-04-28 02:57:00,
2013-04-27 21:02:00,52.2,20.1,30.01,WNW,283,0.0,3.1,28,0.00,,CLR,0.00,VWS V14.01,2013-04-28 03:02:00,
2013-04-27 21:07:00,52.2,20.1,30.01,ENE,67,3.6,8.7,28,0.00,,CLR,0.00,VWS V14.01,2013-04-28 03:07:00,
2013-04-27 21:12:00,51.6,20.4,30.01,SW,224,5.8,8.7,29,0.00,,CLR,0.00,VWS V14.01,2013-04-28 03:12:00,
2013-04-27 21:17:00,50.2,20.7,30.01,WSW,251,5.4,8.7,31,0.00,,CLR,0.00,VWS V14.01,2013-04-28 03:17:00,
2013-04-27 21:22:00,47.3,21.7,30.01,West,266,4.9,8.7,36,0.00,,CLR,0.00,VWS V14.01,2013-04-28 03:22:00,
2013-04-27 21:27:00,46.4,21.6,30.01,WSW,253,4.0,8.7,37,0.00,,CLR,0.00,VWS V14.01,2013-04-28 03:27:00,
2013-04-27 21:32:00,45.9,21.7,30.01,SW,229,5.8,6.7,38,0.00,,CLR,0.00,VWS V14.01,2013-04-28 03:32:00,
2013-04-27 21:37:00,47.3,22.4,30.01,West,274,4.0,8.3,37,0.00,,CLR,0.00,VWS V14.01,2013-04-28 03:37:00,
2013-04-27 21:42:00,46.9,22.0,30.01,SSW,209,4.0,8.3,37,0.00,,CLR,0.00,VWS V14.01,2013-04-28 03:42:00,
2013-04-27 21:47:00,47.7,22.7,30.01,SE,135,4.0,8.3,37,0.00,,CLR,0.00,VWS V14.01,2013-04-28 03:47:00,
2013-04-27 21:52:00,46.6,21.7,30.01,SW,232,7.6,8.3,37,0.00,,CLR,0.00,VWS V14.01,2013-04-28 03:52:00,
2013-04-27 21:57:00,46.9,22.0,30.01,SW,236,8.1,8.3,37,0.00,,CLR,0.00,VWS V14.01,2013-04-28 03:57:00,
2013-04-27 22:01:00,46.2,22.0,30.01,SW,231,5.8,8.3,38,0.00,,CLR,0.00,VWS V14.01,2013-04-28 04:01:00,
2013-04-27 22:06:00,45.7,21.5,30.01,WSW,245,5.4,8.7,38,0.00,,CLR,0.00,VWS V14.01,2013-04-28 04:06:00,
2013-04-27 22:11:00,46.0,21.9,30.01,SW,236,5.4,8.7,38,0.00,,CLR,0.00,VWS V14.01,2013-04-28 04:11:00,
2013-04-27 22:16:00,45.9,21.7,30.01,SW,232,6.3,8.7,38,0.00,,CLR,0.00,VWS V14.01,2013-04-28 04:16:00,
2013-04-27 22:21:00,45.7,21.5,30.01,SW,214,4.9,8.7,38,0.00,,CLR,0.00,VWS V14.01,2013-04-28 04:21:00,
2013-04-27 22:26:00,45.7,22.2,30.01,WSW,244,5.4,8.7,39,0.00,,CLR,0.00,VWS V14.01,2013-04-28 04:26:00,
2013-04-27 22:31:00,45.1,21.7,30.01,West,264,8.3,8.7,39,0.00,,CLR,0.00,VWS V14.01,2013-04-28 04:31:00,
2013-04-27 22:36:00,46.0,21.2,30.01,SSW,200,3.6,8.3,37,0.00,,CLR,0.00,VWS V14.01,2013-04-28 04:36:00,
2013-04-27 22:41:00,46.9,22.7,30.01,West,273,6.7,8.3,38,0.00,,CLR,0.00,VWS V14.01,2013-04-28 04:41:00,
2013-04-27 22:46:00,46.4,22.2,30.01,West,267,5.4,8.3,38,0.00,,CLR,0.00,VWS V14.01,2013-04-28 04:46:00,
2013-04-27 22:51:00,46.9,22.7,30.01,WSW,257,5.8,8.3,38,0.00,,CLR,0.00,VWS V14.01,2013-04-28 04:51:00,
2013-04-27 22:56:00,47.7,23.3,30.01,WSW,250,4.0,8.3,38,0.00,,CLR,0.00,VWS V14.01,2013-04-28 04:56:00,
2013-04-27 23:01:00,46.9,22.7,30.01,West,263,8.7,10.1,38,0.00,,CLR,0.00,VWS V14.01,2013-04-28 05:01:00,
2013-04-27 23:06:00,47.3,23.0,30.01,SW,221,6.3,9.2,38,0.00,,CLR,0.00,VWS V14.01,2013-04-28 05:06:00,
2013-04-27 23:11:00,46.6,22.4,30.01,WSW,249,6.7,9.2,38,0.00,,CLR,0.00,VWS V14.01,2013-04-28 05:11:00,
2013-04-27 23:16:00,47.3,23.0,30.01,West,278,3.1,9.2,38,0.00,,CLR,0.00,VWS V14.01,2013-04-28 05:16:00,
2013-04-27 23:21:00,49.1,24.0,30.01,West,279,6.3,11.0,37,0.00,,CLR,0.00,VWS V14.01,2013-04-28 05:21:00,
2013-04-27 23:26:00,50.7,24.8,30.01,WNW,296,0.0,11.0,36,0.00,,CLR,0.00,VWS V14.01,2013-04-28 05:26:00,
2013-04-27 23:31:00,49.6,24.5,30.01,WNW,282,5.4,11.0,37,0.00,,CLR,0.00,VWS V14.01,2013-04-28 05:31:00,
2013-04-27 23:36:00,50.9,24.9,30.01,WSW,247,10.5,10.5,36,0.00,,CLR,0.00,VWS V14.01,2013-04-28 05:36:00,
2013-04-27 23:41:00,49.1,24.0,30.01,West,277,4.0,10.5,37,0.00,,CLR,0.00,VWS V14.01,2013-04-28 05:41:00,
2013-04-27 23:46:00,48.7,23.6,29.98,West,269,4.9,10.5,37,0.00,,CLR,0.00,VWS V14.01,2013-04-28 05:46:00,
2013-04-27 23:51:00,56.3,24.5,29.98,West,265,8.1,12.3,29,0.00,,CLR,0.00,VWS V14.01,2013-04-28 05:51:00,
2013-04-27 23:56:00,52.2,24.0,29.98,SW,231,4.0,12.3,33,0.00,,CLR,0.00,VWS V14.01,2013-04-28 05:56:00,